Hourly Data Report for June 25, 2020

TRENTON A
ONTARIO
Current Station Operator: DND

44°07'00.000" N
77°32'00.000" W
86.30 m
6158875
71621
YTR

Download Data

Hourly Data (June 2020)
Hourly Data Report for June 25, 2020
TIME
LST
Temp Definition
°C
Dew Point Definition
°C
Rel Hum Definition
%
Precip. Amount Definition
mm

Wind Dir Definition
10's deg

Wind Spd Definition
km/h
Visibility Definition
km
Stn Press Definition
kPa
Hmdx Definition


Wind Chill Definition


Weather Definition


00:00 16.8 14.0 84   23 18 24.1 99.83     Mainly Clear
01:00 16.0 13.9 87   23 18 24.1 99.85     Mainly Clear
02:00 15.7 13.9 89   24 17 24.1 99.89     Mainly Clear
03:00 15.1 13.6 91   24 11 24.1 99.91     Mainly Clear
04:00 14.3 12.7 90   24 11 24.1 99.95     Mainly Clear
05:00 15.2 12.1 82   24 15 24.1 100.03     Mainly Clear
06:00 15.2 11.6 79   24 13 24.1 100.11     Mainly Clear
07:00 17.1 11.4 69   26 13 24.1 100.17     Mainly Clear
08:00 18.4 12.2 67   24 9 24.1 100.20     Mainly Clear
09:00 19.3 13.4 69   21 17 24.1 100.23     Mainly Clear
10:00 19.8 13.0 65   20 21 24.1 100.25     Mainly Clear
11:00 21.1 11.1 53   22 21 24.1 100.27     Mainly Clear
12:00 22.3 10.7 48   22 21 24.1 100.26     Mainly Clear
13:00 23.0 10.4 45   22 22 24.1 100.24     Mainly Clear
14:00 22.9 11.8 50   21 21 24.1 100.22 25   Mostly Cloudy
15:00 24.3 10.7 42   23 21 24.1 100.17 26   Mostly Cloudy
16:00 24.4 10.2 41   24 22 24.1 100.12 26   Mostly Cloudy
17:00 23.8 11.9 47   23 15 24.1 100.11 26   Mostly Cloudy
18:00 21.0 12.9 60   21 18 24.1 100.13     Mostly Cloudy
19:00 20.3 13.6 65   22 13 24.1 100.16     Mainly Clear
20:00 19.1 14.1 73   22 11 24.1 100.17     Mainly Clear
21:00 18.7 14.9 79   26 4 24.1 100.21     Mostly Cloudy
22:00 18.5 13.6 73   24 8 24.1 100.23     Mainly Clear
23:00 17.8 14.4 81   20 5 24.1 100.23     Mainly Clear

Notes on Data Quality.

Legend

  • E = Estimated
  • M = Missing
  • NA = Not Available*
  • [empty] = Indicates an unobserved value
Date modified: